Find OneWeb SL0330

NORAD ID: 49108 Int'l Des: 2021-075 Owner: ONEWEBN Country: UK Constellation: oneweb operational
LEOCIRCULARPOLARONEWEB_TYPE

实时位置

正在加载3D地球...

关于 OneWeb SL0330

正在加载描述...

即将过境

Passes for default location (London). Set your location on the main map for personalized predictions.

高度历史

Loading altitude history...

两行轨道根数

1 49108U 21075AK 26105.17859197 -.00000024 00000-0 -95452-4 0 9995
2 49108 87.9194 18.4041 0001675 72.2820 287.8494 13.17648937225325
Epoch: Apr 15, 2026 • Age: 6 hours

当前状态

高度 1203.7 km
速度 7.26 km/s
星下点 62.75°N, 164.46°W
发射日期 Aug 21, 2021
运行时间 4.6 years
类型 internet

技术详情

分类 Payload
质量 148.00 kg
干质量 140.00 kg
总质量 148.00 kg
长度 1.30 m
直径 1.00 m
跨度 5.00 m
形状 Trapezoid+2 pan
制造商 ONEWUS
平台类型 ARROW
阶段状态 In Orbit
所有者/国家 ONEWEBN/UK

Most Searched